Flag for U.S.A. Weather past 2 weeks in Kilgore, Texas, U.S.A.

Now
72 °F

Clear.


Feels Like: 69 °F
Forecast: 69 / 81 °F
Wind: 3 mph from South

Location: Gregg County Airport

Current Time: May 30, 2015 at 3:44:50 AM

Latest Report: May 30, 2015 at 2:53 AM


Visibility: 10 mi

Pressure: 29.95 "Hg

Humidity: 91%

Dew point: 69 °F

Location of KilgoreLocation

Historic Weather in Kilgore — Graph

°F

Kilgore temperature yesterday

Maximum temperature yesterday: 86 °F (at 2:53 PM)
Minimum temperature yesterday: 72 °F (at 2:53 AM)
Average temperature yesterday: 78 °F

Past Weeks' High & Low Weather Summary

 TemperatureHumidityPressure
High89 °F (May 28, 3:53 PM)94% (May 15, 9:55 AM)30.21 "Hg (May 15, 9:55 AM)
Low56 °F (May 22, 5:53 AM)50% (May 28, 4:53 PM)29.81 "Hg (May 16, 6:53 PM)
Average74 °F81%30.00 "Hg
* Reported May 15 1:53 AM — May 30 1:53 AM, Kilgore, Weather by CustomWeather, © 2015

Note: Actual official high and low records may vary slightly from our data, if they occured in-between our weather recording intervals... More about our weather records

Advertising

Kilgore weather history for previous 24 hours

 ConditionsComfort  
Time TempWeatherWind HumidityBarometerVisibility
1:53 AM
Sat, May 30
72 °FClear.5 mph91%29.96 "Hg10 mi
12:53 AM72 °FClear.No wind91%29.95 "Hg10 mi
11:53 PM
Fri, May 29
73 °FPassing clouds.5 mph88%29.96 "Hg10 mi
10:53 PM75 °FPassing clouds.3 mph79%29.95 "Hg10 mi
9:53 PM76 °FPassing clouds.6 mph80%29.94 "Hg10 mi
8:53 PM78 °FSunny.3 mph74%29.92 "Hg10 mi
7:53 PM81 °FSunny.6 mph65%29.90 "Hg10 mi
6:53 PM82 °FPassing clouds.7 mph63%29.88 "Hg10 mi
5:53 PM84 °FScattered clouds.14 mph59%29.88 "Hg10 mi
4:53 PM85 °FPassing clouds.17 mph53%29.87 "Hg10 mi
3:53 PM86 °FScattered clouds.15 mph57%29.88 "Hg10 mi
2:53 PM86 °FPartly sunny.17 mph57%29.89 "Hg10 mi
1:53 PM84 °FScattered clouds.18 mph63%29.90 "Hg10 mi
12:53 PM83 °FPartly sunny.15 mph70%29.91 "Hg10 mi
11:53 AM82 °FPartly sunny.14 mph72%29.92 "Hg10 mi
10:56 AM80 °FPartly sunny.10 mph76%29.94 "Hg10 mi
10:00 AM77 °FScattered clouds.16 mph85%29.90 "Hg10 mi
9:00 AM76 °FSunny.14 mph88%29.92 "Hg10 mi
7:56 AM74 °FPartly sunny.12 mph91%29.96 "Hg10 mi
6:53 AM73 °FClear.8 mph90%29.93 "Hg10 mi
5:53 AM72 °FClear.7 mph91%29.94 "Hg10 mi
4:53 AM72 °FClear.6 mph91%29.93 "Hg10 mi
3:53 AM72 °FClear.8 mph91%29.94 "Hg10 mi
Weather by CustomWeather, © 2015

See weather overviewHow to use our weather pages